This is the latest recevied weather packets stored in our database for station/object K8RRT. If no packets are shown the sender has not sent any weather packets the latest 10 day(s).
| Time | Temp. | Humidity | Pressure | Rain* | Wind** | Luminosity | Snow |
|---|---|---|---|---|---|---|---|
| 1788624222 | 25° C | 89% | 1010.4 hPa | 0 mm | - | 330 W/m² | - |
| 1788623888 | 25° C | 89% | 1010.5 hPa | 0 mm | - | 300 W/m² | - |
| 1788623587 | 25° C | 90% | 1010 hPa | 0 mm | - | 265 W/m² | - |
| 1788623281 | 25° C | 91% | 1009.8 hPa | 0 mm | - | 252 W/m² | - |
| 1788622977 | 25° C | 91% | 1009.6 hPa | 0 mm | - | 280 W/m² | - |
| 1788622672 | 25° C | 92% | 1009.6 hPa | 0 mm | - | 370 W/m² | - |
| 1788622368 | 24.44° C | 94% | 1009.8 hPa | 0 mm | - | 418 W/m² | - |
| 1788622062 | 23.89° C | 95% | 1010.6 hPa | 0 mm | - | 335 W/m² | - |
| 1788621757 | 23.89° C | 95% | 1010.4 hPa | 0 mm | - | 220 W/m² | - |
| 1788621456 | 23.89° C | 95% | 1009.3 hPa | 0 mm | - | 131 W/m² | - |
| 1788621153 | 23.89° C | 95% | 1010.6 hPa | 0 mm | - | 139 W/m² | - |
| 1788620852 | 23.89° C | 95% | 1010.9 hPa | 0 mm | - | 170 W/m² | - |
| 1788620552 | 23.89° C | 95% | 1010.7 hPa | 0 mm | - | 114 W/m² | - |
| 1788620249 | 23.89° C | 95% | 1010.7 hPa | 0 mm | - | 76 W/m² | - |
| 1788619944 | 23.89° C | 94% | 1010.3 hPa | 0 mm | - | 114 W/m² | - |
| 1788619643 | 23.89° C | 94% | 1010.1 hPa | 0 mm | - | 147 W/m² | - |
| 1788619338 | 23.89° C | 94% | 1009.7 hPa | 0 mm | - | 153 W/m² | - |
| 1788619037 | 23.89° C | 95% | 1010.1 hPa | 0 mm | - | 174 W/m² | - |
| 1788618732 | 23.89° C | 95% | 1010.3 hPa | 0 mm | - | 211 W/m² | - |
| 1788618430 | 23.33° C | 95% | 1010.8 hPa | 0 mm | - | 169 W/m² | - |
| 1788618125 | 23.33° C | 96% | 1010.7 hPa | 0 mm | - | 126 W/m² | - |
| 1788617820 | 23.33° C | 96% | 1010.3 hPa | 0 mm | - | 95 W/m² | - |
| 1788617516 | 23.33° C | 96% | 1010.6 hPa | 0 mm | - | 120 W/m² | - |
| 1788617211 | 23.33° C | 96% | 1010.7 hPa | 0 mm | - | 161 W/m² | - |
| 1788616905 | 23.33° C | 96% | 1011.1 hPa | 0 mm | - | 88 W/m² | - |
* Rain latest hour (hover to see other rain measurements)
** Current wind speed in m/s (hover to see current wind gust speed)